Regional Weather Roundup
Issued by NWS

Home | Current Version | Previous Version | Graphics & Text | Print | Product List | Glossary On
Versions: 1 2 3 4 5 6 7 8 9 10 11 12 13 14 15 16 17 18 19 20 21 22 23 24 25 26 27 28 29 30 31 32 33 34 35 36 37 38 39 40 41 42 43 44 45 46 47 48 49 50
000
ASUS45 KBOI 192110
RWRID
WEATHER ROUNDUP FOR IDAHO
NATIONAL WEATHER SERVICE BOISE ID
200 PM MST WED NOV 19 2014

NOTE: "FAIR" INDICATES FEW OR NO CLOUDS BELOW 12000 FEET
WITH NO SIGNIFICANT WEATHER AND/OR OBSTRUCTIONS TO VISIBILITY

IDZ012-014-192200-
SOUTHWEST IDAHO


CITY           SKY/WX    TMP DP  RH WIND       PRES   REMARKS
BOISE          MOSUNNY   19  14  81 CALM      30.20F HAZE
CALDWELL         N/A    N/A N/A N/A CALM      30.25
MOUNTAIN HOME  CLOUDY    20  20 100 SW2       30.19F FOG
$$

IDZ016-017-192200-
SOUTHCENTRAL IDAHO


CITY           SKY/WX    TMP DP  RH WIND       PRES   REMARKS
BURLEY         MOSUNNY   41  22  46 NE3       30.10F
JEROME         MOSUNNY   35  21  56 SE3       30.13F
TWIN FALLS     MOSUNNY   34  23  64 NE3       30.12F
$$

IDZ019>023-192200-
SOUTHEAST IDAHO


CITY           SKY/WX    TMP DP  RH WIND       PRES   REMARKS
IDAHO FALLS    MOSUNNY   35  20  54 NE5       30.13F WCI  31
POCATELLO      SUNNY     37  23  56 NW3       30.13F
REXBURG        SUNNY     35  21  56 NE3       30.13F
$$

IDZ006-010-011-018-031-032-192200-
CENTRAL IDAHO MOUNTAINS


CITY           SKY/WX    TMP DP  RH WIND       PRES   REMARKS
MCCALL         SUNNY     32  20  61 S5        30.06F WCI  27
HAILEY         MOSUNNY   34  21  60 E9        30.11F WCI  26
STANLEY          N/A     25  15  66 CALM      30.09F
SALMON         SUNNY     25  16  68 CALM      30.14F
CHALLIS        SUNNY     25  14  63 CALM      30.10F
$$

IDZ002-004-006-007-026-192200-
NORTHERN IDAHO


CITY           SKY/WX    TMP DP  RH WIND       PRES   REMARKS
LEWISTON       MOSUNNY   41  21  44 CALM      30.09F
LOWELL           N/A     37  28  70 CALM      30.12F
COEUR D`ALENE  MOSUNNY   37  21  52 NE12      30.08F WCI  30
MULLAN PASS    CLOUDY    32  15  49 S5        30.00F WCI  27
$$



USA.gov is the U.S. government's official web portal to all federal, state and local government web resources and services.